SCP
0 0 0 0 0 0 0 0 0 0 0 0 0 0 0 0 0 0 0 0 0 -0 -0 0 -0 -0 0 -0 -0 -0 -0 -0 -0 0 0 -0 0 -0 0 0 -0 0 0 -0
0 0 0 0 0 0 0 0 -0 0 0 0 0 0 0 0 0 0 0 0 0 -0 0 -0 -0 0 -0 0 0 0 0 -0 -0 0 -0 -0 -0 -0 0 0 -0 0 0 -0
0 0 0 0 0 0 0 0 0 0 0 0 0 0 0 0 0 0 0 0 0 0 -0 0 -0 0 -0 0 0 0 -0 -0 -0 0 -0 0 0 0 0 0 0 0 0 0
0 0 0 0 0 0 0 0 0 0 0 0 0 -0 -0 0 0 0 0 0 0 0 -0 -0 -0 -0 -0 -0 -0 -0 -0 -0 0 0 0 0 0 0 0 0 0 0 0 0
0 0 0 0 0 0 0 0 0 0 0 0 0 0 0 0 0 0 0 0 -0 -0 -0 -0 -0 -0 -0 -0 0 0 -0 -0 -0 -0 0 0 0 0 0 0 0 -0 0 0
0 0 0 0 0 0 0 0 0 0 0 0 0 0 -0 0 0 0 -0 -0 -0 -0 -0 -0 -0 -0 -0 -0 -0 -0 -0 -0 -0 -0 0 0 -0 -0 -0 0 0 0 -0 0
0 0 0 0 0 0 0 0 0 0 0 0 0 -0 -0 -0 0 -0 -0 -0 -0 -0 0 -0 -0 -0 -0 -0 -0 -0 -0 -0 -0 0 0 -0 0 -0 0 0 -0 0 0 -0
0 0 0 0 0 0 0 0 0 0 0 0 0 -0 -0 0 -0 -0 -0 0 0 -0 -0 -0 0 0 -0 -0 -0 -0 0 -0 -0 -0 0 0 0 0 0 0 0 -0 -0 -0
0 0 0 0 0 0 0 0 0 0 0 0 -0 -0 0 -0 -0 -0 0 -0 0 0 0 0 0 0 0 0 -0 0 0 0 0 0 -0 0 0 0 -0 0 0 -0 -0 0
0 0 0 0 0 0 0 0 0 0 0 0 0 -0 -0 0 -0 0 -0 -0 -0 0 -0 -0 0 0 0 0 -0 0 0 0 0 0 0 0 0 -0 0 0 0 0 -0 -0
0 0 0 0 0 0 0 0 0 0 0 0 -0 -0 -0 -0 -0 -0 -0 -0 0 -0 0 0 0 0 0 0 -0 -0 0 0 0 0 0 0 -0 0 0 0 0 0 0 -0
0 0 0 0 0 0 0 0 0 0 0 0 -0 -0 -0 -0 -0 -0 0 0 0 0 0 0 0 0 0 -0 -0 -0 0 0 0 0 0 -0 0 0 -0 -0 0 0 0 0
0 0 0 0 0 0 0 0 0 0 0 0 -0 -0 -0 0 -0 -0 0 0 0 0 0 0 0 0 0 0 0 -0 -0 0 0 0 0 -0 0 0 -0 -0 0 -0 0 0
0 0 0 0 0 0 0 0 0 0 0 0 -0 -0 -0 -0 -0 -0 -0 -0 -0 0 0 0 0 0 0 0 -0 -0 0 0 0 0 0 0 0 -0 -0 -0 -0 -0 -0 0
0 0 0 0 0 0 0 0 0 0 0 -0 -0 -0 -0 -0 -0 -0 0 -0 0 0 0 0 0 0 0 -0 -0 0 0 0 -0 0 0 0 0 0 0 -0 -0 -0 -0 0
0 0 0 0 0 0 0 0 0 0 0 -0 -0 -0 0 -0 -0 -0 -0 0 -0 0 0 0 0 -0 0 -0 0 0 -0 -0 -0 -0 -0 -0 -0 -0 -0 -0 -0 -0 -0 -0
0 0 0 0 0 0 0 0 0 -0 0 0 -0 -0 -0 -0 -0 -0 -0 -0 0 -0 0 0 0 0 0 0 0 0 0 -0 -0 -0 -0 -0 -0 -0 0 0 -0 -0 -0 0
0 0 0 0 0 0 0 0 -0 -0 0 -0 -0 0 -0 0 0 -0 -0 0 -0 -0 0 0 0 0 0 0 0 0 0 -0 -0 -0 0 0 0 0 -0 -0 -0 -0 0 0
0 -0 0 0 0 0 0 0 0 0 0 -0 -0 0 -0 -0 0 0 0 -0 -0 -0 0 0 0 -0 0 -0 -0 -0 0 0 0 0 -0 -0 -0 -0 -0 -0 0 0 0 0
0 0 0 0 0 0 0 0 0 0 0 0 0 0 -0 0 0 -0 -0 0 0 0 0 0 0 0 -0 -0 0 0 -0 0 -0 -0 -0 -0 -0 -0 -0 -0 -0 -0 -0 -0
0 0 0 0 0 0 0 0 0 0 -0 0 0 0 0 -0 -0 0 0 0 0 -0 0 0 0 0 0 -0 0 0 -0 -0 -0 -0 -0 -0 -0 -0 -0 -0 -0 -0 -0 -0
0 0 0 0 0 0 0 0 0 -0 -0 0 0 0 0 0 -0 0 0 0 0 -0 0 0 0 -0 -0 0 0 0 -0 -0 -0 -0 -0 -0 -0 -0 0 0 0 0 0 0
0 0 0 0 0 0 0 0 0 0 0 0 -0 -0 -0 0 0 0 0 0 0 0 0 0 0 0 0 0 0 0 0 0 0 -0 0 0 0 0 0 0 0 0 0 0
0 0 0 0 0 0 0 -0 -0 0 0 0 0 0 -0 0 0 0 0 0 0 0 0 0 -0 -0 -0 0 0 -0 -0 0 0 0 0 0 0 0 0 0 0 0 0 0
0 0 0 0 0 0 0 -0 0 0 0 0 0 0 -0 0 0 0 0 0 0 0 0 0 -0 -0 -0 0 0 0 0 0 0 0 0 0 0 0 0 0 0 0 0 0
0 0 0 0 0 0 -0 0 0 0 0 0 -0 0 -0 0 0 0 0 0 0 0 0 -0 -0 0 0 0 0 0 0 0 0 0 0 0 0 0 0 0 0 0 0 0
0 0 0 0 0 0 -0 0 0 0 0 0 0 -0 0 -0 0 0 0 0 0 0 0 0 0 0 0 0 0 0 0 0 0 0 0 0 0 0 0 0 0 0 0 0
Wind_Speed_500mb
69 73 75 70 68 72 65 26 16 35 26 30 12 17 36 44 37 32 35 30 35 39 39 29 33 40 44 17 12 20 7 11 16 32 24 42 23 39 39 9 27 33 11 8
65 70 70 66 56 54 58 35 40 10 39 18 21 36 37 37 29 31 30 33 39 24 18 18 14 11 28 37 17 3 4 6 13 21 21 6 8 26 30 23 9 41 23 18
62 65 62 57 49 42 44 20 16 38 39 30 37 36 39 36 33 34 46 38 36 9 40 35 31 19 11 31 13 14 12 6 13 20 27 20 16 39 25 27 18 30 29 37
54 58 53 49 47 38 26 13 18 36 18 31 34 38 40 33 38 36 48 33 30 45 31 46 38 48 44 39 19 8 1 7 24 34 38 41 43 45 41 33 32 30 30 29
50 50 46 47 44 39 19 29 41 32 53 32 38 39 29 43 42 43 37 32 51 43 34 37 48 42 37 37 32 23 4 7 28 37 36 37 48 47 43 38 35 29 23 13
50 47 41 43 40 33 27 29 33 32 29 31 31 31 42 35 41 21 55 42 42 43 37 56 67 66 58 47 42 35 28 17 12 15 20 41 21 49 39 37 40 36 35 26
50 42 38 38 33 28 24 29 32 22 21 27 30 43 40 40 40 39 47 53 16 27 71 71 63 62 54 45 41 34 31 17 6 15 21 10 22 26 34 34 37 25 39 26
49 39 36 33 32 27 25 26 28 22 16 41 39 46 45 49 54 42 50 38 50 59 56 18 21 11 20 14 23 26 20 11 5 7 13 15 30 29 15 13 28 29 42 34
47 37 33 33 32 24 26 23 26 32 18 15 57 55 40 34 33 32 37 61 44 42 8 5 8 7 6 6 5 7 12 13 7 7 11 13 16 35 47 23 13 53 51 31
42 36 35 33 32 30 24 32 25 37 30 53 38 44 38 43 26 20 47 43 46 23 7 6 6 8 11 8 9 8 5 5 7 10 9 6 28 49 46 7 6 21 69 76
38 36 32 36 32 28 31 36 28 35 41 64 67 45 48 51 57 21 47 25 7 9 10 7 8 6 5 7 8 5 5 5 2 5 5 5 46 30 14 18 28 18 54 71
36 34 36 34 29 32 30 40 27 34 44 65 77 74 67 69 65 60 23 14 22 7 5 5 9 8 7 11 5 7 3 7 4 9 6 21 28 25 38 38 39 26 19 58
33 36 37 35 33 34 33 38 35 42 44 58 31 47 39 27 32 33 27 19 11 10 12 5 5 10 5 6 7 8 8 12 6 6 9 24 27 24 39 50 58 63 58 68
36 37 37 37 36 37 36 37 30 37 26 12 27 38 68 43 36 38 52 55 33 18 12 8 6 8 8 6 6 7 8 6 5 5 6 11 33 33 41 65 62 67 64 62
38 38 37 37 37 34 32 35 35 33 29 12 46 66 25 20 16 22 25 32 39 16 5 6 6 9 6 2 9 10 13 1 5 5 16 12 31 48 52 76 67 68 75 71
40 38 34 32 28 22 23 11 3 9 15 14 10 31 22 19 24 31 29 27 24 11 9 9 11 12 6 5 7 26 62 46 26 16 46 52 52 57 74 82 81 82 79 80
41 35 31 25 24 20 18 10 10 20 31 11 13 14 12 30 22 18 19 12 11 10 9 8 10 4 8 5 5 8 32 35 33 31 24 41 36 37 55 70 67 65 68 64
35 30 25 23 23 27 29 19 17 19 27 10 7 11 20 24 25 11 7 9 12 13 7 10 2 3 11 7 20 6 7 26 18 31 45 46 48 46 48 49 46 50 48 41
24 20 15 15 9 11 10 10 17 14 11 7 9 7 10 31 31 23 9 7 5 7 5 5 7 9 9 9 12 10 22 32 38 37 38 38 41 40 40 41 41 40 35 30
12 12 5 6 1 11 20 11 7 12 10 11 9 15 9 18 12 8 10 7 1 4 5 8 8 4 17 20 14 29 28 28 28 31 33 31 32 32 31 31 28 26 24 22
11 7 6 16 24 11 9 9 11 16 10 14 13 19 14 8 5 6 11 5 5 3 5 5 3 6 18 34 28 26 29 30 33 34 30 28 26 24 23 23 21 19 17 15
14 18 22 15 7 10 11 8 8 12 4 14 9 12 12 7 7 8 9 6 3 6 12 9 5 11 31 29 30 29 29 29 31 28 28 27 24 20 19 16 15 13 12 10
7 5 7 8 9 5 10 10 7 5 1 4 14 9 6 7 10 11 8 5 8 3 6 5 6 30 34 33 30 29 27 28 27 25 23 21 21 21 18 13 12 10 8 9
7 8 8 10 9 10 9 8 10 11 15 18 21 22 3 7 6 9 6 9 4 2 4 5 18 32 33 30 28 29 26 23 21 19 17 15 14 16 17 14 10 9 11 11
8 10 9 13 18 14 12 13 14 20 18 21 17 15 13 10 10 7 7 6 4 4 4 11 36 36 30 29 27 25 22 19 17 14 14 13 12 11 12 12 9 10 12 16
10 14 15 24 16 20 16 15 19 20 18 21 14 6 5 8 7 7 6 8 6 5 9 38 38 36 32 31 27 21 19 17 16 15 14 14 13 12 12 12 10 15 15 15
11 16 27 34 26 18 23 21 19 13 18 3 7 6 3 11 8 4 7 7 9 25 30 28 36 37 34 29 24 21 19 16 14 13 12 11 10 10 10 9 9 12 12 15
Wind_Direction_500mb
334 336 340 344 346 343 352 325 295 312 331 304 262 322 333 318 320 334 333 339 319 318 329 313 302 277 281 9 335 328 129 278 276 276 193 238 308 218 207 184 247 248 196 256
335 336 338 342 351 349 342 315 300 28 338 305 336 333 312 314 338 321 336 330 312 19 306 304 329 307 307 326 298 325 329 252 316 313 175 151 321 244 245 220 242 266 281 213
335 337 338 345 353 348 340 304 315 332 320 324 348 316 310 316 338 336 332 327 326 292 318 316 307 336 256 232 280 177 274 253 271 282 306 287 306 297 295 221 214 241 252 284
336 337 340 344 349 351 340 291 327 334 309 327 311 296 298 319 336 338 333 317 325 323 315 312 312 322 327 328 101 172 157 290 302 296 297 290 278 276 279 270 199 241 267 270
331 335 338 341 347 355 328 319 343 323 300 313 294 295 352 341 337 337 316 326 313 310 296 301 309 315 309 311 298 285 211 289 311 297 281 280 261 258 253 257 263 204 247 253
328 330 334 338 344 355 335 331 320 317 308 311 313 346 332 336 331 317 319 306 307 305 309 305 298 293 284 270 277 279 291 288 302 264 342 329 260 235 223 231 233 226 204 210
324 326 330 333 340 340 326 323 316 305 298 308 314 324 328 327 335 309 308 326 330 300 320 308 292 271 259 251 251 246 249 250 229 295 321 240 252 186 212 211 230 204 116 142
325 321 326 330 332 332 327 315 308 303 287 308 304 332 317 327 319 319 305 329 332 324 315 307 320 316 194 251 256 234 215 215 263 274 277 271 42 26 358 271 214 213 130 141
321 319 322 323 327 326 318 307 296 296 289 279 321 316 320 315 322 313 326 325 327 328 310 309 301 324 241 311 117 57 159 188 186 283 280 32 20 341 334 317 218 122 138 144
317 317 316 320 319 318 306 300 305 292 281 284 307 304 309 312 307 292 305 330 332 335 320 293 317 321 341 270 172 157 144 223 222 267 278 53 353 331 314 208 49 92 147 150
317 316 316 318 321 322 311 300 292 287 280 286 285 290 288 282 292 277 292 321 48 318 347 326 354 281 275 268 28 359 219 248 268 246 309 6 341 341 17 307 307 226 146 150
315 313 316 318 322 320 315 299 299 291 289 281 290 288 277 270 267 278 286 252 300 277 309 330 316 289 292 321 2 15 47 16 27 25 13 309 340 339 343 31 70 108 103 122
312 314 314 315 317 308 300 295 299 298 292 300 290 297 303 309 259 265 246 271 236 215 210 298 284 281 300 311 21 313 37 24 77 207 340 347 7 12 37 57 66 105 101 115
311 312 314 315 310 307 303 295 293 285 288 283 292 307 302 294 281 259 251 260 253 244 203 235 264 272 297 317 316 359 343 19 64 71 319 333 42 47 54 75 83 98 109 108
311 315 315 314 313 313 309 301 292 272 258 290 298 314 332 318 259 257 260 248 248 209 182 227 245 260 268 178 8 8 357 244 37 77 314 48 65 66 69 77 80 84 97 92
314 314 314 313 306 315 336 314 4 59 245 299 304 312 306 297 282 271 272 245 233 193 201 232 237 244 262 44 36 36 56 74 95 99 88 83 76 73 74 75 79 86 91 99
314 314 312 305 297 282 254 260 256 319 331 294 297 281 301 328 321 327 292 228 206 224 237 242 251 330 183 41 54 349 105 90 104 126 126 95 85 90 86 85 82 78 78 83
318 314 303 293 286 278 274 291 287 261 259 264 277 283 294 357 337 328 304 209 200 214 251 257 270 274 96 76 146 48 82 163 111 102 97 98 104 99 90 86 87 87 87 90
323 315 304 290 247 242 283 313 295 256 234 262 232 274 311 338 330 317 345 243 218 136 264 307 63 41 48 150 144 166 114 118 110 105 99 93 89 88 89 92 88 87 88 88
0 345 294 267 235 303 312 293 221 214 212 230 259 283 277 329 327 297 307 287 342 200 259 72 107 55 175 143 125 114 121 115 108 104 98 92 86 85 83 80 80 83 86 90
355 293 278 297 297 283 235 243 213 190 216 211 241 251 269 262 267 305 293 319 235 253 169 110 116 110 129 134 121 103 105 98 91 89 89 89 91 89 85 78 74 73 71 67
297 289 301 291 260 228 246 235 218 211 230 174 227 263 234 227 242 265 273 258 273 243 148 127 110 140 141 126 118 113 109 104 99 98 93 86 80 77 78 70 62 57 52 37
310 272 254 234 237 250 233 236 226 205 161 320 297 300 220 196 230 250 259 268 252 115 108 114 133 144 136 132 130 122 116 111 106 100 92 84 75 69 71 69 59 52 39 17
246 239 248 229 209 236 238 315 331 324 310 321 320 301 177 278 237 241 258 252 258 145 68 76 133 136 135 142 137 132 124 116 106 94 82 72 66 65 58 50 38 28 19 5
258 237 242 228 249 268 291 297 299 325 313 307 310 287 221 226 246 237 255 258 108 115 101 131 140 141 149 146 143 133 127 121 110 95 81 66 60 63 60 52 55 45 22 12
239 237 250 256 284 293 282 288 301 282 302 295 278 289 271 258 252 245 249 321 57 89 115 129 143 143 154 147 136 138 128 120 106 84 64 50 48 53 60 44 35 28 30 5
233 239 237 261 274 276 278 288 301 315 296 330 284 272 288 295 264 295 22 30 86 122 127 133 142 151 144 140 141 137 130 120 109 92 73 66 61 53 41 48 28 34 22 15
Wind_Speed_850mb
69 73 75 70 68 72 65 26 16 35 26 30 12 17 36 44 37 32 35 30 35 39 39 29 33 40 44 17 12 20 7 11 16 32 24 42 23 39 39 9 27 33 11 8
65 70 70 66 56 54 58 35 40 10 39 18 21 36 37 37 29 31 30 33 39 24 18 18 14 11 28 37 17 3 4 6 13 21 21 6 8 26 30 23 9 41 23 18
62 65 62 57 49 42 44 20 16 38 39 30 37 36 39 36 33 34 46 38 36 9 40 35 31 19 11 31 13 14 12 6 13 20 27 20 16 39 25 27 18 30 29 37
54 58 53 49 47 38 26 13 18 36 18 31 34 38 40 33 38 36 48 33 30 45 31 46 38 48 44 39 19 8 1 7 24 34 38 41 43 45 41 33 32 30 30 29
50 50 46 47 44 39 19 29 41 32 53 32 38 39 29 43 42 43 37 32 51 43 34 37 48 42 37 37 32 23 4 7 28 37 36 37 48 47 43 38 35 29 23 13
50 47 41 43 40 33 27 29 33 32 29 31 31 31 42 35 41 21 55 42 42 43 37 56 67 66 58 47 42 35 28 17 12 15 20 41 21 49 39 37 40 36 35 26
50 42 38 38 33 28 24 29 32 22 21 27 30 43 40 40 40 39 47 53 16 27 71 71 63 62 54 45 41 34 31 17 6 15 21 10 22 26 34 34 37 25 39 26
49 39 36 33 32 27 25 26 28 22 16 41 39 46 45 49 54 42 50 38 50 59 56 18 21 11 20 14 23 26 20 11 5 7 13 15 30 29 15 13 28 29 42 34
47 37 33 33 32 24 26 23 26 32 18 15 57 55 40 34 33 32 37 61 44 42 8 5 8 7 6 6 5 7 12 13 7 7 11 13 16 35 47 23 13 53 51 31
42 36 35 33 32 30 24 32 25 37 30 53 38 44 38 43 26 20 47 43 46 23 7 6 6 8 11 8 9 8 5 5 7 10 9 6 28 49 46 7 6 21 69 76
38 36 32 36 32 28 31 36 28 35 41 64 67 45 48 51 57 21 47 25 7 9 10 7 8 6 5 7 8 5 5 5 2 5 5 5 46 30 14 18 28 18 54 71
36 34 36 34 29 32 30 40 27 34 44 65 77 74 67 69 65 60 23 14 22 7 5 5 9 8 7 11 5 7 3 7 4 9 6 21 28 25 38 38 39 26 19 58
33 36 37 35 33 34 33 38 35 42 44 58 31 47 39 27 32 33 27 19 11 10 12 5 5 10 5 6 7 8 8 12 6 6 9 24 27 24 39 50 58 63 58 68
36 37 37 37 36 37 36 37 30 37 26 12 27 38 68 43 36 38 52 55 33 18 12 8 6 8 8 6 6 7 8 6 5 5 6 11 33 33 41 65 62 67 64 62
38 38 37 37 37 34 32 35 35 33 29 12 46 66 25 20 16 22 25 32 39 16 5 6 6 9 6 2 9 10 13 1 5 5 16 12 31 48 52 76 67 68 75 71
40 38 34 32 28 22 23 11 3 9 15 14 10 31 22 19 24 31 29 27 24 11 9 9 11 12 6 5 7 26 62 46 26 16 46 52 52 57 74 82 81 82 79 80
41 35 31 25 24 20 18 10 10 20 31 11 13 14 12 30 22 18 19 12 11 10 9 8 10 4 8 5 5 8 32 35 33 31 24 41 36 37 55 70 67 65 68 64
35 30 25 23 23 27 29 19 17 19 27 10 7 11 20 24 25 11 7 9 12 13 7 10 2 3 11 7 20 6 7 26 18 31 45 46 48 46 48 49 46 50 48 41
24 20 15 15 9 11 10 10 17 14 11 7 9 7 10 31 31 23 9 7 5 7 5 5 7 9 9 9 12 10 22 32 38 37 38 38 41 40 40 41 41 40 35 30
12 12 5 6 1 11 20 11 7 12 10 11 9 15 9 18 12 8 10 7 1 4 5 8 8 4 17 20 14 29 28 28 28 31 33 31 32 32 31 31 28 26 24 22
11 7 6 16 24 11 9 9 11 16 10 14 13 19 14 8 5 6 11 5 5 3 5 5 3 6 18 34 28 26 29 30 33 34 30 28 26 24 23 23 21 19 17 15
14 18 22 15 7 10 11 8 8 12 4 14 9 12 12 7 7 8 9 6 3 6 12 9 5 11 31 29 30 29 29 29 31 28 28 27 24 20 19 16 15 13 12 10
7 5 7 8 9 5 10 10 7 5 1 4 14 9 6 7 10 11 8 5 8 3 6 5 6 30 34 33 30 29 27 28 27 25 23 21 21 21 18 13 12 10 8 9
7 8 8 10 9 10 9 8 10 11 15 18 21 22 3 7 6 9 6 9 4 2 4 5 18 32 33 30 28 29 26 23 21 19 17 15 14 16 17 14 10 9 11 11
8 10 9 13 18 14 12 13 14 20 18 21 17 15 13 10 10 7 7 6 4 4 4 11 36 36 30 29 27 25 22 19 17 14 14 13 12 11 12 12 9 10 12 16
10 14 15 24 16 20 16 15 19 20 18 21 14 6 5 8 7 7 6 8 6 5 9 38 38 36 32 31 27 21 19 17 16 15 14 14 13 12 12 12 10 15 15 15
11 16 27 34 26 18 23 21 19 13 18 3 7 6 3 11 8 4 7 7 9 25 30 28 36 37 34 29 24 21 19 16 14 13 12 11 10 10 10 9 9 12 12 15
Wind_Direction_850mb
334 336 340 344 346 343 352 325 295 312 331 304 262 322 333 318 320 334 333 339 319 318 329 313 302 277 281 9 335 328 129 278 276 276 193 238 308 218 207 184 247 248 196 256
335 336 338 342 351 349 342 315 300 28 338 305 336 333 312 314 338 321 336 330 312 19 306 304 329 307 307 326 298 325 329 252 316 313 175 151 321 244 245 220 242 266 281 213
335 337 338 345 353 348 340 304 315 332 320 324 348 316 310 316 338 336 332 327 326 292 318 316 307 336 256 232 280 177 274 253 271 282 306 287 306 297 295 221 214 241 252 284
336 337 340 344 349 351 340 291 327 334 309 327 311 296 298 319 336 338 333 317 325 323 315 312 312 322 327 328 101 172 157 290 302 296 297 290 278 276 279 270 199 241 267 270
331 335 338 341 347 355 328 319 343 323 300 313 294 295 352 341 337 337 316 326 313 310 296 301 309 315 309 311 298 285 211 289 311 297 281 280 261 258 253 257 263 204 247 253
328 330 334 338 344 355 335 331 320 317 308 311 313 346 332 336 331 317 319 306 307 305 309 305 298 293 284 270 277 279 291 288 302 264 342 329 260 235 223 231 233 226 204 210
324 326 330 333 340 340 326 323 316 305 298 308 314 324 328 327 335 309 308 326 330 300 320 308 292 271 259 251 251 246 249 250 229 295 321 240 252 186 212 211 230 204 116 142
325 321 326 330 332 332 327 315 308 303 287 308 304 332 317 327 319 319 305 329 332 324 315 307 320 316 194 251 256 234 215 215 263 274 277 271 42 26 358 271 214 213 130 141
321 319 322 323 327 326 318 307 296 296 289 279 321 316 320 315 322 313 326 325 327 328 310 309 301 324 241 311 117 57 159 188 186 283 280 32 20 341 334 317 218 122 138 144
317 317 316 320 319 318 306 300 305 292 281 284 307 304 309 312 307 292 305 330 332 335 320 293 317 321 341 270 172 157 144 223 222 267 278 53 353 331 314 208 49 92 147 150
317 316 316 318 321 322 311 300 292 287 280 286 285 290 288 282 292 277 292 321 48 318 347 326 354 281 275 268 28 359 219 248 268 246 309 6 341 341 17 307 307 226 146 150
315 313 316 318 322 320 315 299 299 291 289 281 290 288 277 270 267 278 286 252 300 277 309 330 316 289 292 321 2 15 47 16 27 25 13 309 340 339 343 31 70 108 103 122
312 314 314 315 317 308 300 295 299 298 292 300 290 297 303 309 259 265 246 271 236 215 210 298 284 281 300 311 21 313 37 24 77 207 340 347 7 12 37 57 66 105 101 115
311 312 314 315 310 307 303 295 293 285 288 283 292 307 302 294 281 259 251 260 253 244 203 235 264 272 297 317 316 359 343 19 64 71 319 333 42 47 54 75 83 98 109 108
311 315 315 314 313 313 309 301 292 272 258 290 298 314 332 318 259 257 260 248 248 209 182 227 245 260 268 178 8 8 357 244 37 77 314 48 65 66 69 77 80 84 97 92
314 314 314 313 306 315 336 314 4 59 245 299 304 312 306 297 282 271 272 245 233 193 201 232 237 244 262 44 36 36 56 74 95 99 88 83 76 73 74 75 79 86 91 99
314 314 312 305 297 282 254 260 256 319 331 294 297 281 301 328 321 327 292 228 206 224 237 242 251 330 183 41 54 349 105 90 104 126 126 95 85 90 86 85 82 78 78 83
318 314 303 293 286 278 274 291 287 261 259 264 277 283 294 357 337 328 304 209 200 214 251 257 270 274 96 76 146 48 82 163 111 102 97 98 104 99 90 86 87 87 87 90
323 315 304 290 247 242 283 313 295 256 234 262 232 274 311 338 330 317 345 243 218 136 264 307 63 41 48 150 144 166 114 118 110 105 99 93 89 88 89 92 88 87 88 88
0 345 294 267 235 303 312 293 221 214 212 230 259 283 277 329 327 297 307 287 342 200 259 72 107 55 175 143 125 114 121 115 108 104 98 92 86 85 83 80 80 83 86 90
355 293 278 297 297 283 235 243 213 190 216 211 241 251 269 262 267 305 293 319 235 253 169 110 116 110 129 134 121 103 105 98 91 89 89 89 91 89 85 78 74 73 71 67
297 289 301 291 260 228 246 235 218 211 230 174 227 263 234 227 242 265 273 258 273 243 148 127 110 140 141 126 118 113 109 104 99 98 93 86 80 77 78 70 62 57 52 37
310 272 254 234 237 250 233 236 226 205 161 320 297 300 220 196 230 250 259 268 252 115 108 114 133 144 136 132 130 122 116 111 106 100 92 84 75 69 71 69 59 52 39 17
246 239 248 229 209 236 238 315 331 324 310 321 320 301 177 278 237 241 258 252 258 145 68 76 133 136 135 142 137 132 124 116 106 94 82 72 66 65 58 50 38 28 19 5
258 237 242 228 249 268 291 297 299 325 313 307 310 287 221 226 246 237 255 258 108 115 101 131 140 141 149 146 143 133 127 121 110 95 81 66 60 63 60 52 55 45 22 12
239 237 250 256 284 293 282 288 301 282 302 295 278 289 271 258 252 245 249 321 57 89 115 129 143 143 154 147 136 138 128 120 106 84 64 50 48 53 60 44 35 28 30 5
233 239 237 261 274 276 278 288 301 315 296 330 284 272 288 295 264 295 22 30 86 122 127 133 142 151 144 140 141 137 130 120 109 92 73 66 61 53 41 48 28 34 22 15